User: anonymous   Login
Location: Unspecified
(0.0000°N, 0.0000°E)
Time: 01:55:23
(UTC+00:00)
Language:

COSMOS 2366 - Orbit

View from above orbital plane
View from above orbital plane
View from above satellite
View from above satellite

Ground track
Ground track

The orbit data is extracted from the following two-line orbital elements,

1 25892U 99045A   18016.74470260 +.00000046 +00000-0 +32621-4 0  9997
2 25892 082.9278 243.3991 0030470 283.3640 144.3947 13.74451854922721
Epoch (UTC): 16 January 2018 17:52:22
Eccentricity: 0.0030470
inclination: 82.9278°
perigee height: 961 km
apogee height: 1006 km
right ascension of ascending node: 243.3991°
argument of perigee: 283.3640°
revolutions per day: 13.74451854
mean anomaly at epoch: 144.3947°
orbit number at epoch: 92272

The dashed part of the orbit path shows where the satellite is in the earth's shadow,  

DLR